Location: Baix
(44.7118°N, 4.7648°E)
Time: 12:56:22
(UTC+00:00)

Vanguard 2 Rocket - Pass Details

Date: 30 November 2020
Orbit: 554 x 3325 km, 32.9° (Epoch: 23 January)

Event Time Altitude Azimuth Distance (km) Brightness Sun altitude
Rises 09:44:55 0° 260° (W) 7,301 11.4 19.4°
Reaches altitude 10° 09:50:02 10° 257° (WSW) 6,276 11.1 19.7°
Maximum altitude 10:08:48 54° 188° (S) 3,197 10.6 21.0°
Drops below altitude 10° 10:21:37 10° 116° (ESE) 4,436 11.1 21.7°
Sets 10:24:33 0° 111° (ESE) 5,116 11.3 21.9°
